Weather in Milovidy

Belarus     52°53′46″N   25°50′58″E
temp.,
°C
wind,
m/s
gust,
m/s
humid.,
%
clouds,
%
prec.,
mm/h
press.,
hPa
HPBL,
m
20 april, tue
tue2000:00+6ne2687100 0.0 1018129
03:00+5ne2791100 0.0 1017167
06:00+4ene2796100 0.0 1016175
09:00+8ne367681 0.0 1016496
12:00+8nne2480100 1.0 1015642
15:00+11ne3458100 1.1 10131428
18:00+11ne346175 0.1 10121083
21:00+6nne238536 0.1 101247
21 april, wed
wed2100:00+5ne118860 0.0 101217
03:00+6ne118399 0.0 101118
06:00+5e1184100 0.0 101013
09:00+7ese1178100 0.0 1010192
12:00+10ese226982 0.2 1010837
15:00+14ssw1351100 0.5 10091607
18:00+13wnw2460100 0.8 1008759
21:00+8wsw1186100 1.7 100910
22 april, thu
thu2200:00+7sw118879 0.3 100910
03:00+6sw229067 0.3 100927
06:00+6ssw2589100 0.0 1009116
09:00+9sw398156 0.3 1010452
12:00+12w5866100 0.6 10111247
15:00+11w4753100 0.7 10111567
18:00+10wsw4651100 0.0 10111596
21:00+6w2856100 0.0 1012365
23 april, fri
fri2300:00+4w3973100 0.0 1013421
03:00+2wsw310845 0.0 1013383
06:00+1wsw39915 0.0 1014348
09:00+4wsw47655 0.0 10141013
12:00+6w5755100 0.3 10141551
15:00+9w5835100 0.9 10142905
18:00+5w596591 0.3 10151098
21:00+2wsw2691100 0.9 1016290
24 april, sat
sat2400:00+1wnw388729 0.0 1016348
03:00−1wnw410905 0.0 1017427
06:00−1wsw31089100 0.0 1017379
09:00+2wsw4768100 0.0 1016560
12:00+6w6951100 0.3 10152034
15:00+7w71154100 1.3 10152197
18:00+6w596097 1.1 10151773
21:00+1wsw26775 1.3 1015121